UR5RFF-13 Weather Reports


Display with metric or nautical units.
time (UTC)temp
F
wind
direction
speed
MPH
gust
MPH
rain 1hr
in
rain 24hr
in
rain mn
in
humidity
%
barometer
mb
20260508101537 76 173 9.0 12.0 0.00 0.01 0.01 26 1015.8
20260508100523 76 221 5.0 11.0 0.00 0.01 0.01 24 1015.9
20260508095608 75 160 8.0 12.0 0.00 0.01 0.01 23 1016.1
20260508094556 74 236 8.0 11.0 0.00 0.01 0.01 22 1016.0
20260508093541 73 239 9.0 13.0 0.00 0.01 0.01 22 1016.0
20260508092526 74 186 9.0 14.0 0.00 0.01 0.01 24 1016.3
20260508091614 73 220 8.0 11.0 0.00 0.01 0.01 25 1016.2
20260508090555 74 199 9.0 14.0 0.00 0.01 0.01 26 1016.3
20260508085539 73 193 12.0 17.0 0.00 0.01 0.01 25 1016.3
20260508084527 73 181 10.0 15.0 0.00 0.01 0.01 26 1016.3
20260508083613 72 190 11.0 17.0 0.00 0.01 0.01 32 1016.6
20260508082559 73 189 9.0 12.0 0.00 0.01 0.01 37 1016.4
20260508081547 71 218 12.0 15.0 0.00 0.01 0.01 41 1016.5
20260508080532 71 208 12.0 16.0 0.00 0.01 0.01 42 1016.4
20260508075618 71 237 6.0 14.0 0.00 0.01 0.01 43 1016.5
20260508074607 71 200 9.0 13.0 0.00 0.01 0.01 44 1016.5
20260508073552 70 222 12.0 16.0 0.00 0.01 0.01 45 1016.4
20260508072538 69 197 11.0 15.0 0.00 0.01 0.01 45 1016.6
20260508071527 70 225 9.0 14.0 0.00 0.01 0.01 45 1016.4
20260508070612 69 188 10.0 15.0 0.00 0.01 0.01 46 1016.5
20260508065559 69 187 9.0 14.0 0.00 0.01 0.01 46 1016.4
20260508064546 69 189 10.0 17.0 0.00 0.01 0.01 47 1016.3
20260508063532 68 187 8.0 13.0 0.00 0.01 0.01 48 1016.5
20260508062618 67 192 12.0 15.0 0.01 0.01 0.01 49 1016.3
20260508061606 67 188 10.0 12.0 0.01 0.01 0.01 50 1016.4
20260508060552 67 213 9.0 12.0 0.01 0.01 0.01 51 1016.3
20260508055537 65 180 11.0 15.0 0.01 0.01 0.01 51 1016.4
20260508054525 66 195 9.0 13.0 0.01 0.01 0.01 51 1016.5
20260508053611 66 191 8.0 12.0 0.01 0.01 0.01 50 1016.4
20260508052557 66 202 8.0 12.0 0.00 0.00 0.00 51 1016.4
20260508051546 65 208 10.0 15.0 0.00 0.00 0.00 51 1016.4
20260508050531 65 210 8.0 11.0 0.00 0.00 0.00 51 1016.4
20260508045617 64 208 9.0 12.0 0.00 0.00 0.00 52 1016.5
20260508044600 64 180 8.0 11.0 0.00 0.00 0.00 53 1016.5
20260508043544 64 210 7.0 11.0 0.00 0.00 0.00 53 1016.4
20260508042530 63 191 7.0 10.0 0.00 0.00 0.00 57 1016.5
20260508041618 63 193 8.0 13.0 0.00 0.00 0.00 59 1016.3
20260508040604 62 217 9.0 12.0 0.00 0.00 0.00 59 1016.3
20260508035549 62 186 7.0 11.0 0.00 0.00 0.00 60 1016.2
20260508034537 62 193 7.0 10.0 0.00 0.00 0.00 60 1016.2
20260508033522 61 188 8.0 11.0 0.00 0.00 0.00 60 1016.2
20260508032607 61 194 9.0 11.0 0.00 0.00 0.00 60 1016.2
20260508031556 61 202 7.0 11.0 0.00 0.00 0.00 60 1016.2
20260508030541 61 195 7.0 10.0 0.00 0.00 0.00 59 1016.2
20260508025526 61 186 8.0 11.0 0.00 0.00 0.00 58 1016.2
20260508024615 60 184 8.0 11.0 0.00 0.00 0.00 57 1016.1
20260508023600 60 210 8.0 11.0 0.00 0.00 0.00 56 1016.0
20260508022546 60 190 7.0 11.0 0.00 0.00 0.00 55 1016.1
20260508021534 61 201 7.0 10.0 0.00 0.00 0.00 54 1016.0
20260508020620 61 180 8.0 14.0 0.00 0.00 0.00 53 1016.0
20260508015606 61 192 9.0 14.0 0.00 0.00 0.00 52 1016.0
20260508014554 61 217 9.0 14.0 0.00 0.00 0.00 52 1016.1
20260508013538 62 200 7.0 10.0 0.00 0.00 0.00 51 1016.0
20260508012524 62 167 8.0 11.0 0.00 0.00 0.00 50 1016.1
20260508011613 62 180 8.0 11.0 0.00 0.00 0.00 50 1016.0
20260508010557 62 186 9.0 14.0 0.00 0.00 0.00 48 1016.2
20260508005543 63 187 9.0 12.0 0.00 0.00 0.00 47 1016.2
20260508004531 63 208 10.0 15.0 0.00 0.00 0.00 46 1016.2
20260508003617 63 196 8.0 13.0 0.00 0.00 0.00 45 1016.3
20260508002602 63 193 8.0 12.0 0.00 0.00 0.00 44 1016.4
20260508001552 63 184 7.0 11.0 0.00 0.00 0.00 43 1016.3
20260508000537 63 191 8.0 13.0 0.00 0.00 0.00 43 1016.3
20260507235522 64 186 7.0 14.0 0.00 0.00 0.00 40 1016.3
20260507234611 64 210 8.0 10.0 0.00 0.00 0.00 40 1016.3
20260507233557 64 206 8.0 11.0 0.00 0.00 0.00 40 1016.3
20260507232543 64 191 7.0 11.0 0.00 0.00 0.00 40 1016.3
20260507231601 64 203 7.0 11.0 0.00 0.00 0.00 40 1016.4
20260507230546 65 198 6.0 10.0 0.00 0.00 0.00 40 1016.5
20260507225532 65 199 6.0 9.0 0.00 0.00 0.00 39 1016.5
20260507224521 65 178 7.0 11.0 0.00 0.00 0.00 39 1016.4
20260507223606 65 173 7.0 10.0 0.00 0.00 0.00 39 1016.4
20260507222552 66 185 7.0 11.0 0.00 0.00 0.00 38 1016.5
20260507221540 66 181 5.0 8.0 0.00 0.00 0.00 37 1016.3
20260507220526 67 180 7.0 9.0 0.00 0.00 0.00 36 1016.3
20260507215611 67 189 8.0 13.0 0.00 0.00 0.00 36 1016.2
20260507214559 67 210 9.0 14.0 0.00 0.00 0.00 35 1016.3
20260507213545 68 216 9.0 12.0 0.00 0.00 0.00 35 1016.3
20260507212531 68 209 8.0 11.0 0.00 0.00 0.00 35 1016.1
20260507211519 68 189 10.0 15.0 0.00 0.00 0.00 34 1016.0
20260507210604 69 199 8.0 11.0 0.00 0.00 0.00 34 1016.0
20260507205549 69 176 7.0 12.0 0.00 0.00 0.00 34 1015.9
20260507204537 69 185 8.0 13.0 0.00 0.00 0.00 34 1015.8
20260507203522 69 184 8.0 12.0 0.00 0.00 0.00 33 1015.8
20260507202608 70 200 9.0 12.0 0.00 0.00 0.00 32 1015.7
20260507201556 70 197 9.0 15.0 0.00 0.00 0.00 32 1015.4
20260507200541 70 202 9.0 11.0 0.00 0.00 0.00 32 1015.5
20260507195527 71 205 8.0 12.0 0.00 0.00 0.00 31 1015.4
20260507194616 71 199 9.0 13.0 0.00 0.00 0.00 31 1015.3
20260507193601 71 193 8.0 14.0 0.00 0.00 0.00 31 1015.4
20260507192547 72 197 8.0 11.0 0.00 0.00 0.00 31 1015.3
20260507191535 72 200 9.0 13.0 0.00 0.00 0.00 30 1015.1
20260507190620 72 197 9.0 12.0 0.00 0.00 0.00 30 1015.0
20260507185606 73 180 9.0 12.0 0.00 0.00 0.00 27 1015.0
20260507184553 73 190 8.0 13.0 0.00 0.00 0.00 27 1014.9
20260507183538 73 193 11.0 15.0 0.00 0.00 0.00 26 1014.8
20260507182525 73 180 8.0 11.0 0.00 0.00 0.00 26 1014.6
20260507181614 74 180 9.0 12.0 0.00 0.00 0.00 26 1014.6
20260507180558 74 215 9.0 14.0 0.00 0.00 0.00 25 1014.6
20260507175543 75 194 9.0 12.0 0.00 0.00 0.00 25 1014.5
20260507174533 75 179 11.0 16.0 0.00 0.00 0.00 24 1014.3
20260507173617 75 195 8.0 12.0 0.00 0.00 0.00 23 1014.1
20260507172603 76 200 7.0 9.0 0.00 0.00 0.00 23 1014.2
20260507171551 76 201 8.0 11.0 0.00 0.00 0.00 23 1014.1
20260507170536 77 180 6.0 8.0 0.00 0.00 0.00 22 1014.0
20260507165522 78 180 7.0 10.0 0.00 0.00 0.00 22 1013.9
20260507164611 78 226 8.0 13.0 0.00 0.00 0.00 22 1013.8
20260507163557 78 183 9.0 15.0 0.00 0.00 0.00 22 1013.8
20260507162544 79 188 10.0 13.0 0.00 0.00 0.00 21 1013.9
20260507161532 79 199 10.0 15.0 0.00 0.00 0.00 21 1013.8
20260507160619 79 180 10.0 14.0 0.00 0.00 0.00 21 1013.8
20260507155604 80 180 11.0 18.0 0.00 0.00 0.00 21 1013.9
20260507154553 80 188 14.0 20.0 0.00 0.00 0.00 21 1013.9
20260507153539 80 180 13.0 19.0 0.00 0.00 0.00 21 1013.8
20260507152525 80 183 13.0 22.0 0.00 0.00 0.00 21 1013.8
20260507151613 81 191 10.0 15.0 0.00 0.00 0.00 21 1013.8
20260507150558 80 180 11.0 14.0 0.00 0.00 0.00 21 1014.0
20260507145542 80 172 9.0 13.0 0.00 0.00 0.00 21 1014.0
20260507144531 80 198 13.0 17.0 0.00 0.00 0.00 21 1014.0
20260507143615 80 186 11.0 17.0 0.00 0.00 0.00 21 1014.0
20260507142601 81 215 11.0 15.0 0.00 0.00 0.00 21 1014.1
20260507141549 81 212 12.0 16.0 0.00 0.00 0.00 21 1014.1
20260507140534 81 193 10.0 16.0 0.00 0.00 0.00 21 1014.3
20260507135520 81 213 9.0 14.0 0.00 0.00 0.00 21 1014.3
20260507134609 80 171 12.0 16.0 0.00 0.00 0.00 21 1014.2
20260507133555 81 186 13.0 20.0 0.00 0.00 0.00 21 1014.4
20260507132541 81 200 10.0 17.0 0.00 0.00 0.00 21 1014.5
20260507131530 80 169 8.0 15.0 0.00 0.00 0.00 21 1014.5
20260507130616 80 205 13.0 17.0 0.00 0.00 0.00 21 1014.5
20260507125601 80 167 11.0 16.0 0.00 0.00 0.00 21 1014.7
20260507124549 80 193 12.0 16.0 0.00 0.00 0.00 21 1014.7
20260507123535 81 183 13.0 17.0 0.00 0.00 0.00 21 1014.7
20260507122522 81 191 12.0 17.0 0.00 0.00 0.00 21 1014.6
20260507121611 80 180 13.0 21.0 0.00 0.00 0.00 21 1014.8
20260507120556 80 180 14.0 22.0 0.00 0.00 0.00 21 1014.9
20260507115541 81 193 16.0 23.0 0.00 0.00 0.00 21 1014.9
20260507114529 81 187 16.0 23.0 0.00 0.00 0.00 21 1015.0
20260507113615 81 216 13.0 17.0 0.00 0.00 0.00 21 1015.0
20260507112601 80 174 14.0 21.0 0.00 0.00 0.00 21 1015.0
20260507111550 80 191 13.0 19.0 0.00 0.00 0.00 21 1015.2
20260507110535 80 194 17.0 25.0 0.00 0.00 0.00 21 1015.2
20260507105521 80 186 19.0 32.0 0.00 0.00 0.00 21 1015.2
20260507104610 81 187 17.0 23.0 0.00 0.00 0.00 21 1015.3
20260507103555 80 199 20.0 27.0 0.00 0.00 0.00 21 1015.3
20260507102541 81 219 18.0 23.0 0.00 0.00 0.00 21 1015.3